QPF
0.21 0.22 0.24 0.19 0.14 0.12 0.13 0.12 0.12 0.10 0.10 0.13 0.14 0.09 0.09 0.09 0.10 0.11 0.10 0.08 0.10 0.15 0.19 0.23 0.23 0.21 0.20 0.14 0.13 0.19 0.24 0.17 0.11 0.09 0.07 0.06 0.06 0.08 0.08 0.08 0.06 0.05 0.06
0.16 0.16 0.16 0.15 0.12 0.11 0.11 0.12 0.11 0.09 0.08 0.08 0.12 0.11 0.08 0.09 0.09 0.10 0.10 0.09 0.09 0.12 0.14 0.14 0.16 0.18 0.14 0.11 0.11 0.18 0.20 0.17 0.13 0.10 0.08 0.07 0.07 0.08 0.09 0.08 0.07 0.06 0.06
0.10 0.11 0.13 0.13 0.12 0.11 0.11 0.13 0.11 0.09 0.08 0.07 0.12 0.13 0.09 0.09 0.09 0.09 0.09 0.10 0.09 0.10 0.10 0.09 0.11 0.12 0.11 0.10 0.11 0.18 0.15 0.15 0.12 0.11 0.10 0.09 0.08 0.06 0.08 0.08 0.07 0.06 0.07
0.08 0.10 0.10 0.10 0.12 0.13 0.13 0.15 0.15 0.11 0.09 0.08 0.09 0.10 0.10 0.10 0.11 0.10 0.11 0.11 0.11 0.11 0.11 0.10 0.09 0.10 0.11 0.12 0.12 0.14 0.14 0.12 0.10 0.08 0.08 0.08 0.07 0.07 0.08 0.08 0.06 0.06 0.08
0.06 0.08 0.08 0.08 0.09 0.10 0.10 0.11 0.11 0.12 0.12 0.11 0.10 0.11 0.12 0.13 0.12 0.11 0.11 0.11 0.12 0.14 0.14 0.12 0.11 0.13 0.14 0.11 0.10 0.11 0.14 0.14 0.10 0.06 0.06 0.08 0.07 0.07 0.07 0.08 0.06 0.06 0.09
0.04 0.06 0.08 0.07 0.07 0.08 0.07 0.06 0.07 0.08 0.10 0.11 0.12 0.11 0.12 0.16 0.13 0.11 0.11 0.12 0.12 0.14 0.14 0.13 0.13 0.14 0.13 0.10 0.10 0.10 0.11 0.15 0.11 0.06 0.06 0.07 0.07 0.07 0.07 0.07 0.06 0.05 0.06
0.02 0.05 0.07 0.04 0.04 0.05 0.03 0.03 0.05 0.06 0.08 0.10 0.10 0.11 0.14 0.15 0.14 0.12 0.13 0.17 0.16 0.18 0.17 0.17 0.16 0.17 0.15 0.13 0.10 0.11 0.11 0.15 0.12 0.07 0.06 0.07 0.06 0.06 0.07 0.07 0.06 0.04 0.04
0.01 0.03 0.06 0.05 0.05 0.05 0.04 0.03 0.04 0.06 0.08 0.09 0.11 0.12 0.12 0.13 0.15 0.15 0.16 0.20 0.19 0.21 0.22 0.22 0.21 0.18 0.14 0.11 0.09 0.10 0.09 0.11 0.09 0.07 0.07 0.07 0.05 0.05 0.06 0.05 0.04 0.03 0.03
0.01 0.02 0.04 0.04 0.05 0.05 0.04 0.04 0.06 0.07 0.08 0.10 0.10 0.10 0.09 0.10 0.16 0.21 0.23 0.24 0.22 0.21 0.22 0.23 0.22 0.16 0.12 0.09 0.07 0.07 0.06 0.06 0.05 0.04 0.05 0.06 0.04 0.05 0.05 0.04 0.04 0.03 0.02
0.01 0.01 0.01 0.02 0.04 0.04 0.05 0.05 0.06 0.07 0.07 0.08 0.07 0.08 0.08 0.10 0.16 0.22 0.29 0.30 0.26 0.22 0.20 0.21 0.19 0.14 0.10 0.08 0.07 0.05 0.04 0.04 0.03 0.03 0.03 0.03 0.03 0.03 0.04 0.04 0.04 0.03 0.03
0.01 0.01 0.02 0.02 0.03 0.05 0.04 0.04 0.05 0.05 0.06 0.06 0.06 0.07 0.10 0.11 0.16 0.26 0.36 0.36 0.27 0.24 0.22 0.19 0.15 0.13 0.10 0.09 0.07 0.04 0.03 0.02 0.02 0.02 0.02 0.02 0.02 0.03 0.04 0.04 0.04 0.03 0.02
0.01 0.02 0.03 0.04 0.04 0.05 0.05 0.05 0.05 0.05 0.05 0.04 0.04 0.05 0.06 0.08 0.14 0.22 0.30 0.28 0.23 0.23 0.18 0.16 0.14 0.09 0.06 0.06 0.05 0.03 0.02 0.02 0.01 0.01 0.01 0.01 0.02 0.02 0.03 0.03 0.03 0.04 0.03
0.01 0.02 0.03 0.03 0.05 0.07 0.08 0.07 0.06 0.05 0.05 0.04 0.03 0.04 0.04 0.05 0.09 0.13 0.15 0.13 0.14 0.14 0.12 0.09 0.06 0.03 0.03 0.03 0.03 0.03 0.02 0.01 0.01 0.01 0.01 0.01 0.02 0.02 0.02 0.03 0.04 0.03 0.03
0.02 0.02 0.03 0.03 0.05 0.09 0.08 0.08 0.07 0.06 0.05 0.05 0.04 0.04 0.04 0.06 0.07 0.08 0.07 0.07 0.08 0.07 0.06 0.05 0.05 0.03 0.02 0.01 0.01 0.02 0.03 0.02 0.01 0.02 0.02 0.01 0.01 0.02 0.03 0.03 0.03 0.03 0.03
0.01 0.02 0.03 0.03 0.04 0.06 0.08 0.08 0.06 0.06 0.07 0.05 0.05 0.04 0.05 0.06 0.07 0.07 0.06 0.05 0.04 0.03 0.03 0.05 0.05 0.03 0.03 0.03 0.03 0.02 0.02 0.02 0.02 0.02 0.02 0.02 0.02 0.02 0.02 0.03 0.03 0.03 0.02
0.02 0.03 0.03 0.03 0.04 0.04 0.05 0.06 0.06 0.06 0.06 0.04 0.04 0.04 0.04 0.04 0.05 0.05 0.05 0.05 0.03 0.03 0.04 0.04 0.05 0.05 0.05 0.04 0.03 0.03 0.02 0.02 0.02 0.02 0.02 0.02 0.02 0.02 0.03 0.03 0.04 0.04 0.04
0.03 0.03 0.04 0.04 0.03 0.03 0.04 0.04 0.03 0.03 0.03 0.03 0.03 0.03 0.02 0.02 0.03 0.03 0.03 0.04 0.04 0.04 0.05 0.04 0.04 0.05 0.05 0.04 0.03 0.02 0.02 0.02 0.02 0.02 0.03 0.03 0.03 0.03 0.03 0.04 0.05 0.05 0.05
0.04 0.04 0.03 0.03 0.03 0.03 0.03 0.04 0.04 0.03 0.03 0.03 0.02 0.02 0.01 0.02 0.03 0.03 0.03 0.04 0.04 0.04 0.04 0.04 0.04 0.04 0.05 0.04 0.04 0.04 0.03 0.02 0.02 0.02 0.02 0.02 0.03 0.03 0.04 0.04 0.05 0.05 0.06
0.06 0.04 0.03 0.03 0.03 0.03 0.02 0.03 0.03 0.04 0.05 0.06 0.06 0.03 0.01 0.01 0.02 0.02 0.03 0.05 0.04 0.03 0.04 0.03 0.03 0.03 0.03 0.03 0.02 0.02 0.02 0.02 0.02 0.02 0.02 0.02 0.02 0.03 0.04 0.03 0.04 0.07 0.09
0.05 0.06 0.05 0.03 0.03 0.02 0.02 0.02 0.02 0.03 0.07 0.08 0.09 0.07 0.03 0.02 0.02 0.03 0.03 0.04 0.04 0.04 0.06 0.06 0.06 0.05 0.04 0.03 0.01 0.02 0.02 0.02 0.02 0.02 0.02 0.02 0.02 0.02 0.02 0.03 0.05 0.05 0.06
0.04 0.07 0.07 0.05 0.04 0.03 0.02 0.02 0.02 0.03 0.04 0.06 0.07 0.09 0.05 0.04 0.05 0.05 0.05 0.06 0.07 0.07 0.07 0.06 0.06 0.05 0.04 0.03 0.03 0.03 0.03 0.02 0.04 0.05 0.04 0.03 0.03 0.03 0.02 0.02 0.04 0.05 0.05
0.01 0.02 0.04 0.05 0.05 0.04 0.03 0.03 0.02 0.02 0.02 0.03 0.04 0.05 0.04 0.05 0.06 0.06 0.06 0.07 0.09 0.10 0.09 0.07 0.06 0.06 0.05 0.05 0.06 0.07 0.08 0.07 0.05 0.04 0.05 0.05 0.05 0.04 0.03 0.03 0.04 0.04 0.04
0.01 0.00 0.01 0.01 0.01 0.02 0.03 0.03 0.03 0.03 0.03 0.03 0.04 0.06 0.05 0.05 0.05 0.07 0.08 0.10 0.12 0.11 0.09 0.08 0.06 0.07 0.06 0.05 0.04 0.08 0.11 0.11 0.08 0.06 0.05 0.05 0.07 0.07 0.06 0.06 0.04 0.04 0.04
0.00 0.00 0.00 0.00 0.00 0.01 0.01 0.03 0.03 0.04 0.04 0.04 0.06 0.09 0.08 0.08 0.09 0.10 0.09 0.09 0.10 0.08 0.08 0.07 0.05 0.07 0.07 0.06 0.05 0.06 0.08 0.10 0.11 0.11 0.09 0.07 0.08 0.09 0.08 0.05 0.05 0.04 0.05
0.00 0.00 0.00 0.00 0.01 0.01 0.01 0.02 0.02 0.02 0.03 0.03 0.05 0.08 0.09 0.11 0.10 0.07 0.05 0.05 0.05 0.06 0.07 0.07 0.08 0.07 0.06 0.06 0.06 0.06 0.05 0.06 0.08 0.09 0.09 0.09 0.08 0.06 0.06 0.05 0.05 0.05 0.05
0.00 0.00 0.00 0.00 0.01 0.01 0.01 0.01 0.02 0.02 0.02 0.03 0.03 0.04 0.06 0.06 0.05 0.04 0.03 0.03 0.05 0.05 0.06 0.07 0.08 0.07 0.07 0.07 0.07 0.06 0.06 0.06 0.06 0.06 0.07 0.08 0.09 0.07 0.04 0.05 0.05 0.06 0.07
MSLP
1009.27 1008.80 1008.38 1008.03 1007.75 1007.54 1007.36 1007.21 1007.07 1006.97 1006.91 1006.95 1007.11 1007.39 1007.79 1008.28 1008.80 1009.31 1009.79 1010.22 1010.61 1010.99 1011.39 1011.82 1012.29 1012.79 1013.28 1013.74 1014.14 1014.48 1014.76 1015.01 1015.27 1015.56 1015.90 1016.29 1016.70 1017.10 1017.47 1017.79 1018.04 1018.24 1018.40
1009.75 1009.35 1008.99 1008.71 1008.49 1008.32 1008.18 1008.06 1007.94 1007.85 1007.81 1007.86 1008.03 1008.31 1008.70 1009.16 1009.64 1010.10 1010.51 1010.87 1011.20 1011.52 1011.87 1012.27 1012.72 1013.20 1013.68 1014.12 1014.51 1014.83 1015.10 1015.35 1015.60 1015.91 1016.27 1016.67 1017.10 1017.52 1017.90 1018.21 1018.45 1018.62 1018.75
1010.17 1009.82 1009.51 1009.27 1009.11 1009.00 1008.92 1008.84 1008.77 1008.72 1008.71 1008.78 1008.95 1009.22 1009.57 1009.98 1010.39 1010.78 1011.12 1011.42 1011.69 1011.97 1012.30 1012.67 1013.11 1013.58 1014.04 1014.47 1014.83 1015.13 1015.39 1015.62 1015.88 1016.19 1016.56 1016.97 1017.41 1017.84 1018.22 1018.52 1018.75 1018.90 1019.00
1010.49 1010.17 1009.90 1009.72 1009.62 1009.58 1009.57 1009.57 1009.56 1009.56 1009.59 1009.67 1009.83 1010.07 1010.37 1010.72 1011.06 1011.38 1011.66 1011.90 1012.14 1012.41 1012.72 1013.10 1013.53 1013.99 1014.43 1014.84 1015.17 1015.44 1015.66 1015.88 1016.12 1016.42 1016.79 1017.21 1017.65 1018.07 1018.45 1018.74 1018.96 1019.11 1019.21
1010.70 1010.41 1010.19 1010.06 1010.03 1010.07 1010.15 1010.23 1010.29 1010.34 1010.40 1010.49 1010.63 1010.84 1011.09 1011.37 1011.65 1011.92 1012.15 1012.38 1012.61 1012.88 1013.21 1013.60 1014.04 1014.49 1014.91 1015.27 1015.56 1015.78 1015.96 1016.14 1016.35 1016.64 1016.99 1017.41 1017.85 1018.27 1018.63 1018.93 1019.14 1019.29 1019.41
1010.83 1010.57 1010.40 1010.34 1010.39 1010.52 1010.67 1010.83 1010.95 1011.05 1011.13 1011.22 1011.35 1011.52 1011.73 1011.96 1012.20 1012.44 1012.66 1012.89 1013.14 1013.44 1013.80 1014.21 1014.65 1015.09 1015.48 1015.79 1016.02 1016.18 1016.30 1016.43 1016.61 1016.87 1017.21 1017.62 1018.05 1018.47 1018.83 1019.12 1019.34 1019.50 1019.64
1010.94 1010.71 1010.59 1010.61 1010.73 1010.93 1011.16 1011.37 1011.54 1011.67 1011.76 1011.86 1011.97 1012.12 1012.30 1012.51 1012.74 1012.97 1013.21 1013.46 1013.75 1014.09 1014.48 1014.90 1015.34 1015.75 1016.10 1016.35 1016.51 1016.60 1016.66 1016.74 1016.89 1017.13 1017.46 1017.86 1018.30 1018.71 1019.07 1019.36 1019.59 1019.76 1019.91
1011.07 1010.88 1010.82 1010.89 1011.08 1011.33 1011.61 1011.85 1012.05 1012.19 1012.29 1012.38 1012.49 1012.64 1012.82 1013.03 1013.27 1013.53 1013.79 1014.08 1014.41 1014.77 1015.18 1015.61 1016.04 1016.41 1016.70 1016.89 1016.99 1017.01 1017.02 1017.06 1017.18 1017.41 1017.75 1018.16 1018.60 1019.02 1019.38 1019.67 1019.89 1020.06 1020.21
1011.28 1011.13 1011.11 1011.23 1011.46 1011.74 1012.03 1012.28 1012.47 1012.61 1012.71 1012.80 1012.92 1013.09 1013.30 1013.54 1013.81 1014.10 1014.39 1014.71 1015.06 1015.43 1015.84 1016.25 1016.64 1016.97 1017.21 1017.34 1017.37 1017.35 1017.32 1017.35 1017.47 1017.71 1018.07 1018.50 1018.96 1019.39 1019.75 1020.03 1020.23 1020.38 1020.52
1011.57 1011.46 1011.49 1011.64 1011.88 1012.16 1012.43 1012.65 1012.82 1012.94 1013.03 1013.14 1013.28 1013.49 1013.74 1014.03 1014.34 1014.66 1014.98 1015.30 1015.64 1016.00 1016.38 1016.75 1017.09 1017.37 1017.55 1017.64 1017.64 1017.59 1017.55 1017.58 1017.72 1018.00 1018.39 1018.85 1019.34 1019.79 1020.15 1020.42 1020.60 1020.72 1020.82
1011.95 1011.88 1011.93 1012.10 1012.33 1012.58 1012.81 1012.98 1013.11 1013.20 1013.28 1013.41 1013.59 1013.84 1014.15 1014.49 1014.84 1015.18 1015.51 1015.82 1016.13 1016.44 1016.76 1017.08 1017.37 1017.59 1017.74 1017.79 1017.78 1017.74 1017.71 1017.77 1017.95 1018.26 1018.69 1019.20 1019.71 1020.18 1020.55 1020.81 1020.96 1021.03 1021.09
1012.37 1012.34 1012.42 1012.59 1012.80 1013.01 1013.17 1013.29 1013.36 1013.41 1013.49 1013.64 1013.86 1014.17 1014.54 1014.93 1015.31 1015.66 1015.97 1016.25 1016.50 1016.75 1017.01 1017.26 1017.49 1017.68 1017.80 1017.85 1017.85 1017.82 1017.83 1017.92 1018.14 1018.49 1018.96 1019.51 1020.05 1020.54 1020.91 1021.16 1021.29 1021.33 1021.33
1012.78 1012.80 1012.91 1013.08 1013.26 1013.42 1013.52 1013.57 1013.59 1013.61 1013.69 1013.85 1014.12 1014.48 1014.90 1015.33 1015.74 1016.09 1016.37 1016.59 1016.78 1016.97 1017.16 1017.36 1017.55 1017.71 1017.83 1017.89 1017.91 1017.91 1017.95 1018.08 1018.32 1018.70 1019.19 1019.75 1020.32 1020.82 1021.21 1021.45 1021.57 1021.58 1021.55
1013.13 1013.21 1013.35 1013.53 1013.70 1013.81 1013.85 1013.85 1013.82 1013.81 1013.89 1014.07 1014.38 1014.78 1015.23 1015.69 1016.11 1016.45 1016.70 1016.88 1017.01 1017.14 1017.28 1017.43 1017.60 1017.76 1017.89 1017.97 1018.02 1018.05 1018.12 1018.26 1018.51 1018.89 1019.37 1019.93 1020.49 1021.00 1021.39 1021.66 1021.78 1021.79 1021.75
1013.40 1013.54 1013.72 1013.92 1014.07 1014.16 1014.17 1014.12 1014.05 1014.03 1014.10 1014.30 1014.62 1015.05 1015.53 1016.00 1016.42 1016.74 1016.97 1017.11 1017.21 1017.30 1017.41 1017.55 1017.72 1017.89 1018.04 1018.15 1018.22 1018.28 1018.35 1018.48 1018.70 1019.05 1019.50 1020.02 1020.56 1021.05 1021.46 1021.74 1021.89 1021.94 1021.92
1013.56 1013.76 1014.00 1014.22 1014.38 1014.46 1014.45 1014.38 1014.31 1014.27 1014.34 1014.54 1014.87 1015.29 1015.77 1016.24 1016.65 1016.96 1017.18 1017.31 1017.39 1017.48 1017.59 1017.73 1017.92 1018.11 1018.29 1018.43 1018.52 1018.58 1018.63 1018.73 1018.90 1019.18 1019.56 1020.02 1020.51 1020.98 1021.38 1021.69 1021.88 1021.98 1022.01
1013.63 1013.90 1014.18 1014.44 1014.62 1014.71 1014.71 1014.65 1014.57 1014.53 1014.60 1014.78 1015.10 1015.50 1015.96 1016.41 1016.80 1017.10 1017.31 1017.45 1017.55 1017.65 1017.78 1017.95 1018.16 1018.39 1018.59 1018.75 1018.85 1018.91 1018.94 1018.98 1019.09 1019.28 1019.57 1019.93 1020.35 1020.78 1021.17 1021.49 1021.72 1021.88 1021.99
1013.66 1013.97 1014.29 1014.58 1014.80 1014.91 1014.94 1014.90 1014.84 1014.81 1014.87 1015.03 1015.31 1015.68 1016.09 1016.50 1016.87 1017.16 1017.38 1017.53 1017.66 1017.79 1017.95 1018.16 1018.40 1018.66 1018.88 1019.06 1019.16 1019.21 1019.21 1019.21 1019.24 1019.34 1019.52 1019.79 1020.11 1020.47 1020.82 1021.14 1021.41 1021.63 1021.81
1013.66 1014.00 1014.35 1014.67 1014.92 1015.08 1015.15 1015.15 1015.12 1015.11 1015.16 1015.29 1015.52 1015.83 1016.18 1016.54 1016.87 1017.15 1017.37 1017.54 1017.70 1017.87 1018.08 1018.32 1018.58 1018.85 1019.10 1019.28 1019.39 1019.43 1019.42 1019.38 1019.35 1019.36 1019.45 1019.60 1019.83 1020.10 1020.39 1020.68 1020.96 1021.21 1021.45
1013.65 1014.01 1014.38 1014.72 1015.00 1015.20 1015.33 1015.38 1015.39 1015.41 1015.45 1015.56 1015.73 1015.97 1016.25 1016.54 1016.82 1017.08 1017.30 1017.50 1017.69 1017.89 1018.12 1018.38 1018.66 1018.94 1019.19 1019.38 1019.51 1019.55 1019.53 1019.48 1019.41 1019.37 1019.37 1019.42 1019.54 1019.70 1019.91 1020.14 1020.39 1020.66 1020.92
1013.64 1014.00 1014.37 1014.72 1015.03 1015.28 1015.47 1015.58 1015.66 1015.70 1015.75 1015.83 1015.95 1016.12 1016.31 1016.54 1016.76 1016.99 1017.20 1017.41 1017.62 1017.85 1018.09 1018.36 1018.64 1018.92 1019.16 1019.36 1019.50 1019.56 1019.57 1019.52 1019.45 1019.37 1019.31 1019.27 1019.28 1019.33 1019.43 1019.58 1019.77 1020.00 1020.27
1013.57 1013.93 1014.30 1014.66 1015.00 1015.30 1015.55 1015.74 1015.87 1015.97 1016.04 1016.10 1016.17 1016.26 1016.39 1016.54 1016.71 1016.90 1017.10 1017.31 1017.53 1017.77 1018.02 1018.28 1018.54 1018.80 1019.03 1019.23 1019.39 1019.49 1019.53 1019.52 1019.47 1019.38 1019.28 1019.18 1019.08 1019.02 1019.00 1019.03 1019.13 1019.29 1019.54
1013.40 1013.76 1014.13 1014.50 1014.86 1015.21 1015.53 1015.80 1016.01 1016.16 1016.26 1016.32 1016.36 1016.40 1016.46 1016.55 1016.67 1016.83 1017.01 1017.22 1017.44 1017.67 1017.91 1018.15 1018.39 1018.62 1018.84 1019.04 1019.21 1019.35 1019.44 1019.48 1019.47 1019.40 1019.28 1019.12 1018.94 1018.76 1018.61 1018.52 1018.50 1018.59 1018.77
1013.07 1013.44 1013.81 1014.19 1014.59 1015.00 1015.38 1015.74 1016.03 1016.25 1016.39 1016.46 1016.49 1016.49 1016.51 1016.55 1016.63 1016.75 1016.92 1017.12 1017.34 1017.57 1017.79 1018.01 1018.22 1018.42 1018.61 1018.80 1018.98 1019.15 1019.29 1019.39 1019.42 1019.38 1019.26 1019.06 1018.81 1018.54 1018.27 1018.05 1017.92 1017.90 1018.01
1012.55 1012.94 1013.32 1013.73 1014.16 1014.62 1015.08 1015.51 1015.88 1016.17 1016.37 1016.47 1016.50 1016.49 1016.48 1016.48 1016.54 1016.65 1016.81 1017.01 1017.23 1017.45 1017.66 1017.85 1018.02 1018.19 1018.35 1018.53 1018.71 1018.90 1019.07 1019.21 1019.29 1019.27 1019.16 1018.95 1018.65 1018.30 1017.94 1017.61 1017.37 1017.25 1017.27
1011.84 1012.26 1012.67 1013.10 1013.58 1014.09 1014.61 1015.12 1015.56 1015.92 1016.17 1016.31 1016.36 1016.35 1016.33 1016.32 1016.37 1016.47 1016.63 1016.83 1017.06 1017.28 1017.47 1017.65 1017.79 1017.92 1018.05 1018.20 1018.37 1018.56 1018.75 1018.91 1019.02 1019.03 1018.94 1018.72 1018.40 1018.00 1017.57 1017.16 1016.83 1016.62 1016.57
Thickness
5778 5779 5773 5774 5774 5774 5774 5774 5774 5774 5773 5772 5772 5771 5771 5771 5771 5771 5771 5771 5771 5770 5769 5768 5767 5766 5765 5764 5763 5761 5759 5758 5757 5755 5753 5752 5750 5749 5749 5748 5749 5749 5747
5780 5777 5773 5773 5772 5772 5772 5772 5772 5772 5772 5771 5770 5770 5770 5770 5770 5770 5770 5769 5769 5768 5767 5766 5765 5764 5763 5762 5760 5759 5757 5755 5754 5753 5752 5751 5749 5748 5747 5747 5748 5747 5745
5779 5776 5772 5769 5770 5770 5770 5770 5770 5770 5770 5769 5768 5768 5768 5768 5768 5768 5767 5767 5767 5766 5764 5763 5763 5761 5760 5759 5758 5756 5755 5753 5753 5752 5752 5752 5749 5747 5746 5746 5746 5744 5743
5777 5776 5771 5768 5768 5768 5768 5768 5768 5769 5768 5767 5766 5766 5766 5765 5765 5766 5765 5765 5765 5764 5762 5762 5760 5759 5758 5757 5756 5755 5754 5753 5752 5753 5754 5753 5750 5746 5745 5744 5743 5743 5742
5776 5774 5769 5767 5767 5767 5767 5767 5767 5767 5766 5765 5765 5764 5764 5763 5763 5763 5763 5763 5763 5762 5761 5760 5759 5757 5757 5755 5754 5753 5752 5752 5752 5753 5753 5751 5749 5744 5743 5743 5742 5741 5740
5776 5774 5768 5766 5766 5766 5765 5765 5765 5765 5764 5764 5763 5762 5762 5761 5761 5761 5761 5761 5761 5760 5759 5758 5756 5755 5754 5754 5753 5752 5751 5751 5752 5754 5752 5750 5747 5743 5742 5741 5741 5739 5738
5777 5774 5769 5765 5764 5764 5764 5764 5764 5763 5762 5762 5761 5761 5760 5760 5759 5759 5759 5758 5758 5757 5756 5755 5754 5753 5752 5752 5751 5750 5750 5751 5754 5752 5751 5749 5745 5742 5741 5740 5739 5738 5737
5777 5774 5769 5764 5764 5763 5763 5763 5762 5762 5761 5760 5760 5759 5759 5758 5758 5757 5756 5756 5755 5754 5753 5753 5752 5751 5750 5749 5749 5749 5749 5750 5752 5752 5750 5747 5743 5741 5740 5739 5738 5737 5736
5776 5774 5772 5769 5765 5763 5762 5762 5761 5760 5759 5759 5759 5758 5758 5757 5757 5756 5755 5754 5753 5752 5751 5750 5750 5749 5749 5748 5748 5748 5748 5750 5753 5751 5750 5746 5741 5740 5739 5738 5737 5736 5735
5775 5774 5772 5770 5768 5767 5764 5761 5760 5759 5758 5758 5757 5757 5758 5757 5756 5755 5754 5752 5752 5751 5750 5749 5748 5748 5748 5747 5746 5746 5747 5749 5752 5751 5749 5744 5740 5739 5738 5737 5737 5736 5735
5771 5772 5772 5771 5768 5767 5766 5762 5761 5759 5757 5757 5757 5756 5757 5758 5758 5756 5753 5751 5751 5750 5749 5748 5748 5748 5747 5747 5746 5746 5747 5752 5752 5750 5747 5743 5740 5739 5737 5737 5736 5735 5734
5769 5770 5771 5770 5769 5767 5766 5763 5763 5762 5759 5758 5758 5758 5758 5757 5757 5755 5751 5751 5750 5749 5749 5748 5748 5748 5749 5749 5748 5747 5751 5752 5752 5750 5746 5742 5740 5738 5737 5737 5736 5735 5733
5770 5769 5769 5767 5766 5767 5765 5764 5763 5762 5760 5760 5758 5758 5757 5757 5757 5755 5754 5752 5751 5751 5752 5750 5751 5752 5752 5751 5751 5751 5752 5753 5752 5751 5746 5741 5739 5738 5737 5737 5736 5734 5733
5771 5770 5770 5767 5764 5763 5764 5764 5763 5763 5762 5761 5759 5758 5758 5757 5755 5754 5753 5753 5753 5753 5752 5752 5751 5751 5751 5751 5752 5752 5752 5753 5752 5750 5745 5741 5740 5739 5738 5737 5735 5734 5733
5771 5770 5769 5767 5764 5762 5762 5762 5764 5763 5763 5761 5759 5758 5757 5757 5756 5754 5752 5752 5754 5754 5754 5752 5752 5751 5751 5752 5752 5753 5753 5752 5751 5750 5746 5742 5740 5739 5738 5737 5735 5734 5733
5774 5773 5772 5768 5765 5762 5762 5761 5762 5762 5760 5760 5759 5758 5757 5757 5755 5754 5754 5753 5754 5754 5753 5753 5753 5752 5753 5752 5752 5752 5752 5753 5751 5750 5748 5744 5741 5740 5738 5737 5736 5735 5733
5777 5775 5772 5770 5768 5765 5763 5763 5763 5763 5762 5761 5760 5758 5757 5757 5756 5755 5756 5755 5755 5754 5753 5753 5753 5753 5753 5753 5753 5753 5753 5752 5751 5750 5749 5748 5745 5741 5739 5738 5736 5735 5734
5781 5776 5774 5774 5770 5767 5764 5763 5764 5764 5763 5762 5761 5760 5758 5757 5756 5756 5757 5757 5755 5755 5755 5754 5754 5754 5753 5753 5753 5754 5753 5751 5751 5750 5749 5748 5747 5746 5741 5738 5737 5735 5734
5782 5778 5775 5774 5772 5769 5767 5765 5764 5763 5762 5763 5762 5761 5760 5759 5758 5758 5758 5756 5756 5757 5756 5756 5755 5754 5753 5752 5753 5753 5754 5753 5751 5750 5749 5748 5746 5745 5744 5739 5737 5736 5734
5785 5781 5777 5775 5772 5771 5770 5767 5766 5766 5765 5764 5763 5761 5761 5760 5759 5759 5759 5757 5758 5758 5756 5754 5752 5752 5753 5753 5755 5753 5753 5753 5752 5750 5749 5748 5746 5745 5744 5742 5739 5737 5734
5787 5783 5780 5777 5774 5772 5771 5769 5768 5766 5766 5765 5764 5762 5761 5761 5760 5760 5761 5758 5758 5757 5755 5755 5753 5752 5752 5753 5751 5750 5751 5752 5750 5750 5749 5748 5747 5745 5743 5742 5741 5740 5737
5788 5785 5782 5779 5777 5775 5773 5771 5770 5768 5768 5767 5766 5763 5762 5761 5761 5761 5760 5760 5759 5757 5755 5754 5752 5752 5752 5753 5749 5746 5742 5743 5746 5749 5748 5746 5745 5744 5744 5742 5740 5738 5737
5792 5789 5787 5783 5780 5778 5776 5774 5772 5769 5768 5768 5766 5765 5764 5763 5762 5761 5760 5760 5759 5758 5756 5754 5753 5751 5749 5751 5752 5747 5741 5737 5740 5743 5743 5743 5742 5742 5742 5740 5738 5736 5734
5797 5794 5790 5786 5783 5780 5778 5776 5772 5768 5767 5767 5767 5767 5765 5763 5762 5761 5761 5760 5759 5759 5757 5756 5755 5752 5749 5749 5750 5749 5746 5744 5737 5733 5737 5739 5739 5738 5738 5738 5736 5733 5732
5802 5798 5794 5789 5786 5783 5780 5777 5773 5771 5771 5771 5769 5766 5764 5764 5763 5762 5761 5760 5759 5759 5757 5755 5753 5752 5751 5749 5748 5747 5745 5743 5741 5734 5729 5732 5734 5736 5735 5733 5732 5731 5729
5805 5801 5797 5791 5786 5784 5781 5779 5775 5772 5770 5768 5766 5766 5765 5765 5764 5762 5761 5760 5758 5758 5756 5754 5752 5751 5750 5748 5748 5747 5744 5742 5740 5737 5732 5729 5729 5730 5731 5730 5729 5727 5725